This is the latest recevied weather packets stored in our database for station/object KD8BMB. If no packets are shown the sender has not sent any weather packets the latest 10 day(s).
| Time | Temp. | Humidity | Pressure | Rain* | Wind** | Luminosity | Snow |
|---|---|---|---|---|---|---|---|
| 1777991137 | 9.44° C | 84% | 1005.8 hPa | 0 mm | - | 88 W/m² | - |
| 1777990834 | 9.44° C | 82% | 1006.2 hPa | 0 mm | - | 52 W/m² | - |
| 1777990532 | 9.44° C | 79% | 1006.2 hPa | 0 mm | - | 37 W/m² | - |
| 1777989925 | 9.44° C | 76% | 1006 hPa | 0 mm | - | 39 W/m² | - |
| 1777989622 | 9.44° C | 77% | 1005.9 hPa | 0 mm | - | 44 W/m² | - |
| 1777989318 | 9.44° C | 80% | 1005.6 hPa | 0 mm | - | 67 W/m² | - |
| 1777989015 | 9.44° C | 79% | 1005.7 hPa | 0 mm | - | 83 W/m² | - |
| 1777988711 | 9.44° C | 79% | 1005.9 hPa | 0 mm | - | 64 W/m² | - |
| 1777988408 | 9.44° C | 80% | 1005.8 hPa | 0 mm | - | 65 W/m² | - |
| 1777988105 | 9.44° C | 74% | 1005.3 hPa | 0 mm | - | 51 W/m² | - |
| 1777987801 | 10° C | 73% | 1005.3 hPa | 0 mm | - | 46 W/m² | - |
| 1777987498 | 9.44° C | 70% | 1004.8 hPa | 0 mm | - | 63 W/m² | - |
| 1777987195 | 10° C | 70% | 1004.9 hPa | 0 mm | - | 26 W/m² | - |
| 1777986891 | 10° C | 70% | 1004.6 hPa | 0 mm | - | 45 W/m² | - |
| 1777986590 | 10° C | 71% | 1004.3 hPa | 0 mm | - | 105 W/m² | - |
| 1777986287 | 9.44° C | 71% | 1004.1 hPa | 0 mm | - | 80 W/m² | - |
| 1777985985 | 10° C | 70% | 1004.1 hPa | 0 mm | - | 72 W/m² | - |
| 1777985682 | 10° C | 70% | 1004.3 hPa | 0 mm | - | 60 W/m² | - |
| 1777985378 | 10° C | 70% | 1004.4 hPa | 0 mm | - | 81 W/m² | - |
| 1777985075 | 10° C | 69% | 1004.3 hPa | 0 mm | - | 94 W/m² | - |
| 1777984771 | 10° C | 70% | 1004 hPa | 0 mm | - | 121 W/m² | - |
| 1777984468 | 10° C | 70% | 1004.2 hPa | 0 mm | - | 92 W/m² | - |
| 1777984164 | 9.44° C | 70% | 1004.3 hPa | 0 mm | - | 125 W/m² | - |
| 1777983862 | 9.44° C | 70% | 1004.2 hPa | 0 mm | - | 78 W/m² | - |
| 1777983558 | 9.44° C | 71% | 1004 hPa | 0 mm | - | 70 W/m² | - |
* Rain latest hour (hover to see other rain measurements)
** Current wind speed in m/s (hover to see current wind gust speed)